COSMOS 1275 DEB, 12746

Orbit data source: Space-Track

COSMOS 1275 DEB, 12746 is space debris in LEO originally from a launch on Thu, 04 Jun 1981 UTC launched from the Plesetsk Missile And Space Complex (PKMTR). Debris objects in space refer to the collection of defunct objects orbiting the Earth. Examples of debris include non-operational satellites, rocket bodies, and fragments generated from explosions, collisions, or faulty payload assembly.

Loading next visibility...
Identifier
12746, 1981-053CP
Orbit
LEO
Country
Flag of CISCIS
Related business
Manufacturer
Unknown
Mission
Spacecraft
Bus & Motor
Unknown
Mass
Unknown
Launch date (UTC)
1981-06-04 (45 years ago)
Launch vehicle
Unknown
Launch site
Plesetsk Missile And Space Complex (PKMTR)
Object type
Payload
Rocket body
Debris
Shape & HBR
Unknown shape, 0.2 m
Radar Cross Section
Medium (>0.1 m² and <1 m²)

Expand to show TLE details & history
Last TLE update: 10 hours ago

TLE from 10 hours ago
0 COSMOS 1275 DEB
1 12746U 81053CP  26255.79327957  .00002009  00000-0  74891-3 0  9999
2 12746  82.9324  81.7148 0036608 358.1159   1.9884 14.31222721299593
Epoch: 2026-09-12T19:02Z
TLE epoch observation values (Epoch: 2026-09-12T19:02:19.354Z)
Latitude
-0.00006°
Longitude
164.33697°
Altitude
764.403 km
Speed
7.486 km/s
True Right ascension
05h 26m 51s
True Declination
0° 00' 00"
Sunlit
Object was in daylight at epoch
Visualization orbit readout
Latitude
Unknown
Longitude
Unknown
Altitude
Unknown
Speed
Unknown
Apparent Right ascension
Unknown
Apparent Declination
Unknown
Sunlit
N/A
Visualization observer readout
Local Sidereal Time
21:07:03
Azimuth
Unknown
Elevation
Unknown
Doppler factor
Unknown
Orbital elements
Apogee altitude
810.94 km
Perigee altitude
758.497 km
Semi-major axis
7,162.855 km
Eccentricity
0.00366
Inclination
82.9324°
RAAN
81.7148°
Arg. of periapsis
358.1159°
True anomaly
2.00302°
Mean anomaly
1.9884°
Eccentric anomaly
1.9957°
Mean motion
3.58025 °/min
Orbital period
100.55 mins
BSTAR
0.00074891
Loading maneuver chart data...
Computing Atmospheric mass density...
Loading historical data...
Loading historical data...
Loading historical data...
Loading historical data...
Loading historical data...
Loading historical data...
Loading historical data...

Documentation

Showing up to 5 results
|